Location: Complexul Astronomic Baia Mare
(47.6577°N, 23.5639°E)
Time: 05:52:16
(UTC+03:00)

ISS - Pass Details

Date: 19 March 2017
Orbit: 399 x 409 km, 51.6° (Epoch: 30 March)

Event Time Altitude Azimuth Distance (km) Brightness Sun altitude
Exits shadow 04:10:52 41° 51° (NE) 607 -2.5 -23.6°
Drops below altitude 10° 04:13:27 10° 89° (E) 1,476 -0.1 -23.2°
Sets 04:15:35 0° 95° (E) 2,337 1.0 -22.8°
